Powrót do katalogu

FENGYUN 1C DEB

AktywnySSO
NORAD 30150·DEBRIS·🇨🇳 China

Wystrzelony May 10, 1999 z Taiyuan Satellite Launch Center

Loading…

Następne Przeloty (najbliższe 24 godziny)

TLE

ŚwieżeSource: Space-Track

Epoka: Sep 14, 2026, 08:14 UTC

1 30150U 99025TF  26257.34360898  .00000403  00000-0  35148-3 0  9998
2 30150  99.0277  28.3424 0145531 311.2971  73.9825 13.86945543992788

Śledź FENGYUN 1C DEB w czasie rzeczywistym z AllMySat

Download on the App Store